Details From PADU - UNALASKA
To PADK - ADAK
Flight Number -
Tags decoded
Created
Modified
Stats Distance 1,037 nm / 1,920 km
Max Altitude 0 ft / 0 m
Waypoints 5
Social Downloads 0
Likes 0
Share VATSIM

Download

Looking for another format? Having issues loading an existing format? Contact us
Advertisement - Login to hide

Notes

Requested: PADU ODK PDN J623 CDB J115 DUT PADK

Route

PADU PDN CDB J115 DUT PADK

ID Type Via Altitude Latitude Longitude Leg Dist Tot Dist Heading (true) Name
O PADU APT - 0 ft / 0 m 53.89907˚ -166.54506˚ - 0 nm - UNALASKA
PDN NDB - 0 ft / 0 m 56.95428˚ -158.64756˚ 325 nm 325 nm 53° / 59° PORT HEIDEN NDB
CDB VOR - 0 ft / 0 m 55.26739˚ -162.77425˚ 171 nm 496 nm 235° / 232° COLD BAY VORTAC
DUT NDB J115 (AWY-HI) 0 ft / 0 m 53.90514˚ -166.54786˚ 154 nm 651 nm 240° / 237° DUTCH HARBOR NDB
O PADK APT - 0 ft / 0 m 51.87798˚ -176.64574˚ 385 nm 1036 nm 256° / 248° ADAK

Altitude Profile

Advertisement - Login to hide

Weather


0- 5 10 15 20 25 30 35+ Temperature / ° C

Clouds and Precipitation
Forecast for 2017-12-13 18:00 UTC. Updated 2 hours ago

Ground ~20,000 ft ~40,000 ft Winds

PADU

Details ICAO PADU (DUT)
Name UNALASKA
Region USA (Alaska)
Timezone America/Adak (UTC-10.0)
Stats Elevation 22 ft / 7 m (AMSL)
Location 53.899070° -166.545064°
Runways 1
Magnetic Variation 9.126° E

METAR

PADU 131514Z AUTO 30006KT 9SM -SN OVC030 01/M01 A2954 RMK AO2 P0000 FZRANO

Decode

TAF

PADU 131355Z 1314/1412 31012KT P6SM -SHRASN SCT006 BKN012 OVC025 TEMPO 1314/1315 1 1/2SM -SHSN BR BKN006 OVC012 FM131500 30006KT P6SM VCSH SCT025 BKN035

Decode

Departure Runways

ID Width Length Bearing (true) Bearing (mag) Surface Threshold Offset Overrun Length
12 100 ft / 30 m 3,895 ft / 1,187 m 135.64° 126.51° Asphalt 100 ft / 30 m 0 ft / 0 m
30 100 ft / 30 m 3,895 ft / 1,187 m 315.65° 306.52° Asphalt 101 ft / 31 m 0 ft / 0 m

PADK

Details ICAO PADK (ADK)
Name ADAK
Region USA (Alaska)
Timezone America/Adak (UTC-10.0)
Stats Elevation 18 ft / 5 m (AMSL)
Location 51.877976° -176.645742°
Runways 2
Magnetic Variation 4.748° E

METAR

PADK 131522Z AUTO 16015KT 3SM -SN BR FEW008 BKN018 OVC050 01/M01 A2951 RMK AO2 P0000 FZRANO

Decode

TAF

Not found

Destination Runways

ID Width Length Bearing (true) Bearing (mag) Surface Threshold Offset Overrun Length
05 200 ft / 61 m 7,772 ft / 2,369 m 60.49° 55.74° Asphalt 0 ft / 0 m 751 ft / 229 m
18 200 ft / 61 m 7,603 ft / 2,317 m 185.39° 180.64° Asphalt 0 ft / 0 m 0 ft / 0 m
23 200 ft / 61 m 7,772 ft / 2,369 m 240.52° 235.77° Asphalt 0 ft / 0 m 151 ft / 46 m
36 200 ft / 61 m 7,603 ft / 2,317 m 5.38° 0.63° Asphalt 0 ft / 0 m 0 ft / 0 m

Approach Navaids

Runway Type Ident Frequency Range Bearing (true) Bearing (mag) Slope Elevation
23 Localiser IBER 108.90 MHz 18 nm / 33 km 240.61° 235.86° - 18 ft / 5 m (AMSL)
23 Glidescope IBER 108.90 MHz 10 nm / 19 km 240.51° 235.76° 2.75° 18 ft / 5 m (AMSL)

Popular Alternatives